x

Upper Potomac, Md (44061) Weather Station

8:50pm - Thu 17th Apr 2014 All times are EDT. -4 hours from GMT.

  • Wind
    13mph, 18mph gusts
  • Air Temp 47°f
  • Sea Pressure 1034.9mb
  • Upper Potomac, Md
  • Upper Potomac, Md

More Historic Weather Station data

Upgrade to MSW Pro to gain access to the past 30 days of data for over 8000 Wavebouys and Weather Stations around the globe.

Join Pro

Comparision Forecast

View Surf forecast
   
Thu 04/17 8:50pm 13 18 mph 1034.9mb - 47f
8:40pm 13 18 mph 1034.9mb - 47f
8:30pm 11 18 mph 1034.9mb - 47f
8:20pm 13 18 mph 1034.8mb - 48f
8:10pm 11 13 mph 1034.8mb - 48f
8:00pm 11 16 mph 1034.9mb 57f 49f
7:50pm 13 16 mph 1034.8mb - 49f
7:40pm 13 18 mph 1034.8mb - 49f
7:30pm 13 18 mph 1034.8mb - 50f
7:20pm 13 16 mph 1034.9mb - 50f
7:10pm 13 18 mph 1034.9mb - 50f
7:00pm 13 20 mph 1034.9mb 58f 51f
6:50pm 13 18 mph 1035mb - 51f
6:40pm 13 18 mph 1034.9mb - 52f
6:30pm 11 16 mph 1034.9mb - 52f
6:20pm 9 16 mph 1034.9mb - 52f
6:10pm 11 16 mph 1034.9mb - 52f
6:00pm 11 16 mph 1034.9mb 58f 52f
5:50pm 9 16 mph 1034.9mb - 52f
5:40pm 11 16 mph 1034.8mb - 52f
5:30pm 11 16 mph 1034.7mb - 52f
5:20pm 9 16 mph 1034.7mb - 53f
5:10pm 9 11 mph 1034.7mb - 53f
5:00pm 9 13 mph 1034.8mb 57f 52f
4:50pm 9 13 mph 1034.8mb - 52f
4:40pm 11 16 mph 1034.8mb - 52f
4:30pm 9 16 mph 1034.9mb - 52f
4:20pm 9 13 mph 1034.9mb - 52f
4:10pm 9 16 mph 1035mb - 52f
4:00pm 9 13 mph 1035.1mb 57f 52f
3:50pm 9 13 mph 1035.2mb - 52f
3:40pm 7 11 mph 1035.3mb - 51f
3:30pm 9 13 mph 1035.5mb - 51f
3:20pm 9 16 mph 1035.6mb - 51f
3:10pm 7 16 mph 1035.8mb - 51f
3:00pm 7 13 mph 1036mb 57f 51f
2:40pm 7 13 mph 1036.1mb - 51f
2:30pm 7 11 mph 1036.2mb - 51f
2:20pm 9 16 mph 1036.3mb - 50f
2:10pm 7 16 mph 1036.5mb - 50f
2:00pm 11 18 mph 1036.5mb 57f 50f
1:50pm 9 18 mph 1036.5mb - 50f
1:40pm 9 16 mph 1036.7mb - 50f
1:30pm 9 13 mph 1036.8mb - 50f
1:20pm 9 16 mph 1036.9mb - 49f
1:10pm 7 13 mph 1037mb - 49f
1:00pm 9 13 mph 1037.1mb 57f 49f
12:50pm 9 18 mph 1037.1mb - 49f
12:40pm 9 16 mph 1037.2mb - 48f
12:30pm 9 16 mph 1037.4mb - 48f
12:20pm 9 13 mph 1037.6mb - 48f
12:10pm 11 16 mph 1037.7mb - 48f
12:00pm 9 18 mph 1037.8mb 58f 48f
11:50am 11 18 mph 1037.8mb - 48f
11:40am 9 16 mph 1037.8mb - 48f
11:30am 11 18 mph 1037.9mb - 47f
11:20am 9 16 mph 1037.9mb - 47f
11:10am 9 16 mph 1037.9mb - 47f
11:00am 9 16 mph 1037.9mb 58f 47f
10:50am 7 11 mph 1038mb - 47f
10:40am 9 13 mph 1038mb - 46f
10:30am 9 16 mph 1038mb - 46f
10:20am 11 16 mph 1038mb - 46f
10:10am 9 16 mph 1038mb - 46f
10:00am 9 18 mph 1037.9mb 58f 46f
9:50am 9 13 mph 1037.8mb - 46f
9:40am 9 16 mph 1037.8mb - 45f
9:30am 9 16 mph 1037.8mb - 45f
9:20am 11 13 mph 1037.8mb - 45f
9:10am 11 16 mph 1037.8mb - 44f
9:00am 13 16 mph 1037.8mb 58f 44f
8:50am 9 16 mph 1037.8mb - 44f
8:40am 9 13 mph 1037.6mb - 44f
8:30am 7 13 mph 1037.5mb - 43f
8:20am 4 7 mph 1037.3mb - 43f
8:10am 7 9 mph 1037.3mb - 42f
8:00am 7 11 mph 1037.2mb 58f 41f
7:50am 7 9 mph 1037.2mb - 41f
7:40am 7 9 mph 1037.1mb - 40f
7:30am 7 11 mph 1036.9mb - 40f
7:20am 7 9 mph 1036.8mb - 40f
7:10am 7 9 mph 1036.7mb - 39f
7:00am 7 9 mph 1036.6mb 58f 40f
6:50am 4 7 mph 1036.5mb - 41f
6:40am 4
mph
1036.3mb - 40f
6:30am 4
mph
1036.1mb - 40f
6:20am 4 7 mph 1035.9mb - 40f
6:10am 4 7 mph 1035.7mb - 40f
6:00am 4 7 mph 1035.7mb 58f 40f
5:50am 4 7 mph 1035.6mb - 40f
5:40am 2 4 mph 1035.5mb - 40f
5:30am 4
mph
1035.3mb - 40f
5:20am 4
mph
1035.2mb - 40f
5:10am 4
mph
1035.2mb - 40f
5:00am 4
mph
1035.3mb 58f 41f
4:50am 4
mph
1035.3mb - 41f
4:40am 4
mph
1035.2mb - 41f
4:30am 4
mph
1035.1mb - 41f
4:20am 4 7 mph 1034.9mb - 41f
4:10am 2 4 mph 1034.8mb - 41f
4:00am 4 7 mph 1034.7mb 59f 41f
3:50am 4 7 mph 1034.6mb - 41f
3:40am 4 7 mph 1034.5mb - 41f
3:30am 4 7 mph 1034.6mb - 41f
3:20am 4 7 mph 1034.6mb - 41f
3:10am 7 9 mph 1034.5mb - 42f
3:00am 7 9 mph 1034.6mb 59f 42f
2:50am 7 9 mph 1034.5mb - 42f
2:40am 7 9 mph 1034.5mb - 42f
2:30am 7 11 mph 1034.5mb - 43f
2:20am 7 11 mph 1034.5mb - 43f
2:10am 7 9 mph 1034.5mb - 43f
2:00am 7
mph
1034.5mb 58f 42f
1:50am 4 7 mph 1034.5mb - 43f
1:40am 4 7 mph 1034.4mb - 43f
1:30am 4 7 mph 1034.4mb - 43f
1:20am 7 9 mph 1034.3mb - 43f
1:10am 7 9 mph 1034.3mb - 43f
1:00am 7 9 mph 1034.3mb 58f 43f
12:50am 7 9 mph 1034.2mb - 43f
12:40am 7 9 mph 1034.3mb - 43f
12:30am 7 9 mph 1034.3mb - 43f
12:20am 7 9 mph 1034.3mb - 43f
12:10am 7 9 mph 1034.2mb - 44f
12:00am 7 9 mph 1034mb 58f 44f
Wed 04/16 11:50pm 7 9 mph 1034mb - 44f
11:40pm 7 9 mph 1033.9mb - 44f
11:30pm 7 9 mph 1033.9mb - 44f
11:20pm 7 9 mph 1033.9mb - 44f
11:10pm 7 9 mph 1033.9mb - 44f
11:00pm 7 9 mph 1033.8mb 58f 45f
10:50pm 7 9 mph 1033.7mb - 45f
10:40pm 7 9 mph 1033.6mb - 45f
10:30pm 7 9 mph 1033.5mb - 45f
10:20pm 7 11 mph 1033.2mb - 45f
10:10pm 9 11 mph 1033.1mb - 46f
10:00pm 9 13 mph 1033mb 58f 46f
9:50pm 9 11 mph 1033mb - 46f
9:40pm 9 13 mph 1032.9mb - 46f
9:30pm 9 11 mph 1033mb - 46f
9:20pm 7 11 mph 1032.8mb - 47f
9:10pm 7 9 mph 1032.6mb - 47f
9:00pm 7 9 mph 1032.5mb 58f 47f
8:50pm 9
mph
1032.3mb - 47f
8:40pm 7 9 mph 1032.1mb - 47f
8:30pm 7 9 mph 1032mb - 47f
8:20pm 7 9 mph 1031.9mb - 48f
8:10pm 7 11 mph 1031.7mb - 48f
8:00pm 7 13 mph 1031.5mb 58f 48f
7:50pm 7 11 mph 1031.3mb - 48f
7:40pm 7 11 mph 1031.2mb - 48f
7:30pm 9 13 mph 1031.2mb - 49f
7:20pm 7 11 mph 1031.2mb - 49f
7:10pm 7 13 mph 1031.2mb - 49f
7:00pm 9 11 mph 1031.2mb 58f 49f
6:50pm 9 11 mph 1031.1mb - 49f
6:40pm 7 13 mph 1031.1mb - 49f
6:30pm 7 11 mph 1030.9mb - 49f
6:20pm 9 11 mph 1030.9mb - 49f
6:10pm 7 16 mph 1030.8mb - 49f
6:00pm 9 13 mph 1030.7mb 59f 49f
5:50pm 7 13 mph 1030.7mb - 49f
5:40pm 7 13 mph 1030.7mb - 48f
5:30pm 11 16 mph 1030.6mb - 49f
5:20pm 7 11 mph 1030.5mb - 48f
5:10pm 9 16 mph 1030.4mb - 48f
5:00pm 9 16 mph 1030.3mb 59f 48f
4:50pm 9 11 mph 1030.3mb - 48f
4:40pm 9 13 mph 1030.3mb - 47f
4:30pm 9 13 mph 1030.3mb - 47f
4:20pm 9 13 mph 1030.3mb - 47f
4:10pm 11 16 mph 1030.4mb - 47f
4:00pm 9 16 mph 1030.5mb 60f 47f
3:50pm 7 13 mph 1030.6mb - 47f
3:40pm 11 18 mph 1030.7mb - 46f
3:30pm 9 13 mph 1030.7mb - 46f
3:20pm 11 18 mph 1030.7mb - 46f
3:10pm 9 13 mph 1030.8mb - 45f
3:00pm 9 13 mph 1030.9mb 60f 45f
2:50pm 11 16 mph 1030.9mb - 45f
2:40pm 9 13 mph 1031mb - 44f
2:30pm 9 13 mph 1031.2mb - 44f
2:20pm 11 16 mph 1031.2mb - 44f
2:10pm 11 16 mph 1031.3mb - 44f
2:00pm 7 11 mph 1031.3mb 60f 44f
1:50pm 11 18 mph 1031.3mb - 43f
1:40pm 11 16 mph 1031.3mb - 43f
1:30pm 9 13 mph 1031.4mb - 42f
1:20pm 9 16 mph 1031.5mb - 42f
1:10pm 11 18 mph 1031.5mb - 42f
1:00pm 11 18 mph 1031.6mb 60f 42f
12:50pm 9 13 mph 1031.6mb - 41f
12:40pm 11 16 mph 1031.6mb - 41f
12:30pm 11 16 mph 1031.7mb - 41f
12:20pm 11 16 mph 1031.6mb - 40f
12:10pm 11 16 mph 1031.7mb - 40f
12:00pm 13 20 mph 1031.5mb 60f 40f
11:50am 13 20 mph 1031.5mb - 40f
11:40am 13 20 mph 1031.3mb - 39f
11:30am 11 18 mph 1031.2mb - 40f
11:20am 13 18 mph 1031.2mb - 39f
11:10am 13 22 mph 1031.1mb - 39f
11:00am 11 18 mph 1031mb 60f 38f
10:50am 13 18 mph 1030.9mb - 38f
10:40am 13 20 mph 1030.8mb - 38f
10:30am 13 20 mph 1030.7mb - 38f
10:20am 16 22 mph 1030.6mb - 38f
10:10am 13 20 mph 1030.4mb - 37f
10:00am 13 18 mph 1030.4mb 60f 37f
9:50am 13 20 mph 1030.2mb - 37f
9:40am 13 20 mph 1030mb - 37f
9:30am 13 20 mph 1030mb - 37f
9:20am 13 20 mph 1029.7mb - 37f
9:10am 13 18 mph 1029.6mb - 37f
9:00am 13 20 mph 1029.3mb 60f 37f
8:50am 13 20 mph 1029mb - 37f
8:40am 13 20 mph 1028.7mb - 36f
8:30am 13 18 mph 1028.5mb - 36f
8:20am 11 18 mph 1028.2mb - 36f
8:10am 11 16 mph 1028.1mb - 36f
8:00am 11 18 mph 1027.9mb 60f 35f
7:50am 11 18 mph 1027.7mb - 35f
7:40am 9 16 mph 1027.4mb - 36f
7:30am 11 18 mph 1027.1mb - 35f
7:20am 11 18 mph 1026.9mb - 35f
7:10am 11 18 mph 1026.6mb - 35f
7:00am 11 16 mph 1026.3mb 60f 35f
6:50am 9 13 mph 1026.2mb - 35f
6:40am 9 18 mph 1025.9mb - 35f
6:30am 11 18 mph 1025.6mb - 35f
6:20am 11 18 mph 1025.3mb - 34f
6:10am 11 18 mph 1025mb - 35f
6:00am 9 16 mph 1024.8mb 61f 35f
5:50am 11 18 mph 1024.5mb - 35f
5:40am 13 25 mph 1024.2mb - 35f
5:30am 16 22 mph 1024mb - 35f
5:20am 13 18 mph 1023.9mb - 35f
5:10am 13 22 mph 1023.9mb - 35f
5:00am 11 16 mph 1023.6mb 61f 35f
4:50am 13 20 mph 1023.4mb - 35f
4:40am 13 20 mph 1023.4mb - 35f
4:30am 13 20 mph 1023mb - 35f
4:20am 13 22 mph 1022.7mb - 35f
4:10am 11 18 mph 1022.3mb - 35f
4:00am 13 20 mph 1022.1mb 61f 35f
3:50am 16 25 mph 1022.1mb - 35f
3:40am 13 22 mph 1021.8mb - 36f
3:30am 16 29 mph 1021.6mb - 36f
3:20am 16 27 mph 1021.4mb - 36f
3:10am 18 29 mph 1021.1mb - 36f
3:00am 18 29 mph 1020.8mb 61f 37f
2:50am 18 31 mph 1020.5mb - 37f
2:40am 20 29 mph 1020.1mb - 37f
2:30am 16 27 mph 1020mb - 37f
2:20am 18 25 mph 1019.9mb - 37f
2:10am 18 27 mph 1019.8mb - 37f
2:00am 16 27 mph 1019.9mb 61f 37f
1:50am 16 25 mph 1019.9mb - 37f
1:40am 16 27 mph 1019.7mb - 37f
1:30am 16 20 mph 1019.7mb - 38f
1:20am 16 20 mph 1019.6mb - 38f
1:10am 16 25 mph 1019mb - 38f
1:00am 16 29 mph 1018.4mb 61f 38f
12:50am 16 22 mph 1018.7mb - 39f
12:40am 16 25 mph 1019mb - 39f
12:30am 11 20 mph 1018.9mb - 39f
12:20am 13 27 mph 1018.6mb - 39f
12:10am 16 27 mph 1018.5mb - 39f
12:00am 16 27 mph 1017.7mb 61f 40f
Tue 04/15 11:50pm 16 25 mph 1017.3mb - 40f
11:40pm 18 27 mph 1017.6mb - 40f
11:30pm 18 29 mph 1017.2mb - 40f
11:20pm 16 27 mph 1017.5mb - 40f
11:10pm 13 27 mph 1017.5mb - 40f
11:00pm 13 20 mph 1016.9mb 62f 41f
10:50pm 16 25 mph 1016.6mb - 40f
10:40pm 7 13 mph 1016.5mb - 40f
10:30pm 9 13 mph 1016.1mb - 40f
10:20pm 9 11 mph 1015.6mb - 39f
10:10pm 9 13 mph 1015.9mb - 39f
10:00pm 11 16 mph 1015.4mb 62f 39f
9:50pm 13 20 mph 1015.1mb - 40f
9:40pm 18 22 mph 1014.6mb - 40f
9:30pm 18 29 mph 1014.7mb - 39f
9:20pm 16 22 mph 1014.6mb - 38f
9:10pm 13 25 mph 1014.4mb - 38f
9:00pm 16 20 mph 1013.9mb 62f 38f
8:50pm 13 18 mph 1013.7mb - 39f
8:40pm 16 22 mph 1013.2mb - 39f
8:30pm 16 22 mph 1012.6mb - 40f
8:20pm 18 25 mph 1013mb - 40f
8:10pm 16 27 mph 1013.2mb - 40f
8:00pm 11 18 mph 1012.6mb 62f 41f
7:50pm 11 20 mph 1012.5mb - 41f
7:40pm 16 25 mph 1011.4mb - 42f
7:30pm 16 27 mph 1010.9mb - 42f
7:20pm 16 27 mph 1011.2mb - 42f
7:10pm 18 31 mph 1010.4mb - 43f
7:00pm 16 27 mph 1009.7mb 62f 44f
6:50pm 16 25 mph 1010.1mb - 44f
6:40pm 16 29 mph 1009.9mb - 44f
6:30pm 18 27 mph 1009.6mb - 44f
6:20pm 16 22 mph 1009.6mb - 44f
6:10pm 16 27 mph 1009.4mb - 44f
6:00pm 18 25 mph 1008.8mb 62f 44f
5:50pm 18 27 mph 1008.6mb - 44f
5:40pm 18 29 mph 1008.7mb - 45f
5:30pm 18 27 mph 1008.2mb - 45f
5:20pm 18 25 mph 1008.1mb - 46f
5:10pm 16 27 mph 1008.2mb - 46f
5:00pm 20 34 mph 1007.7mb 62f 46f
4:50pm 16 25 mph 1007.1mb - 47f
4:40pm 13 20 mph 1006.8mb - 47f
4:30pm 16 25 mph 1006.7mb - 48f
4:20pm 13 25 mph 1006mb - 48f
4:10pm 11 18 mph 1005.9mb - 48f
4:00pm 16 22 mph 1005.5mb 62f 49f
3:50pm 13 22 mph 1005.7mb - 49f
3:40pm 16 25 mph 1005.8mb - 49f
3:30pm 16 25 mph 1005.4mb - 50f
3:20pm 16 27 mph 1004.9mb - 51f
3:10pm 13 25 mph 1004.6mb - 51f
3:00pm 18 29 mph 1004.4mb 63f 52f
2:50pm 11 18 mph 1004.1mb - 53f
2:40pm 18 29 mph 1004mb - 53f
2:30pm 18 27 mph 1003.7mb - 55f
2:20pm 16 27 mph 1003.1mb - 56f
2:10pm 13 25 mph 1002.6mb - 57f
2:00pm 20 31 mph 1002.1mb 63f 64f
1:50pm 16 22 mph 1000.5mb - 70f
1:40pm 13 20 mph 1000.4mb - 70f
1:30pm 16 22 mph 1000.4mb - 69f
1:20pm 13 18 mph 1000.6mb - 68f
1:10pm 13 16 mph 1000.7mb - 68f
1:00pm 13 16 mph 1000.7mb 63f 67f
12:50pm 13 16 mph 1000.6mb - 67f
12:40pm 11 16 mph 1000.8mb - 67f
12:30pm 11 16 mph 1001mb - 67f
12:20pm 11 18 mph 1001.1mb - 67f
12:10pm 13 18 mph 1001.1mb - 67f
12:00pm 16 20 mph 1001.3mb 63f 67f
11:50am 11 13 mph 1001.3mb - 66f
11:40am 11 13 mph 1001mb - 66f
11:30am 11 16 mph 1000.7mb - 66f
11:20am 7 11 mph 1000.7mb - 65f
11:10am 9 11 mph 1001mb - 65f
11:00am 9 11 mph 1001.2mb 62f 64f
10:50am 9 11 mph 1001.7mb - 64f
10:40am 9 11 mph 1002.3mb - 64f
10:30am 9 13 mph 1002.3mb - 64f
10:20am 9 11 mph 1002.2mb - 64f
10:10am 11 16 mph 1001.9mb - 64f
10:00am 9 13 mph 1002.4mb 63f 64f
9:50am 4 9 mph 1002.5mb - 64f
9:40am 7 9 mph 1002.8mb - 64f
9:30am 9 13 mph 1002.6mb - 64f
9:20am 13 20 mph 1002.8mb - 64f
9:10am 11 16 mph 1002.7mb - 65f
9:00am 11 16 mph 1002.8mb 63f 65f
8:50am 16 18 mph 1003mb - 66f
8:40am 16 22 mph 1003.1mb - 66f
8:30am 18 22 mph 1003mb - 67f
8:20am 20 27 mph 1003mb - 68f
8:10am 18 25 mph 1002.9mb - 68f
8:00am 16 22 mph 1002.9mb 63f 68f
7:50am 18 22 mph 1003mb - 68f
7:40am 18 25 mph 1003.2mb - 68f
7:30am 16 20 mph 1003.3mb - 68f
7:20am 16 20 mph 1003.4mb - 69f
7:10am 16 25 mph 1003.5mb - 69f
7:00am 13 20 mph 1003.6mb 63f 69f
6:50am 13 20 mph 1003.7mb - 69f
6:40am 13 18 mph 1003.9mb - 69f
6:30am 13 18 mph 1004mb - 69f
6:20am 13 20 mph 1004.1mb - 68f
6:10am 13 16 mph 1004.3mb - 67f
6:00am 13 18 mph 1004.5mb 62f 67f
5:50am 13 16 mph 1004.8mb - 67f
5:40am 13 18 mph 1004.8mb - 67f
5:30am 11 18 mph 1005mb - 67f
5:20am 11
mph
1005.1mb - 67f
5:10am 9 13 mph 1005.2mb - 67f
5:00am 11
mph
1005.3mb 62f 67f
4:50am 11 13 mph 1005.5mb - 67f
4:40am 9 13 mph 1005.5mb - 67f
4:30am 11 13 mph 1005.7mb - 67f
4:20am 11 13 mph 1006mb - 67f
4:10am 11 16 mph 1006.1mb - 67f
4:00am 11 16 mph 1006.3mb 63f 67f
3:50am 13 16 mph 1006.5mb - 67f
3:40am 11 16 mph 1006.4mb - 67f
3:30am 13 16 mph 1006.3mb - 68f
3:20am 11 16 mph 1006.5mb - 68f
3:10am 11 18 mph 1006.8mb - 67f
3:00am 11 16 mph 1007mb 63f 67f
2:50am 11
mph
1007.2mb - 67f
2:40am 9 11 mph 1007.3mb - 67f
2:30am 7 11 mph 1007.3mb - 67f
2:20am 4 7 mph 1007.5mb - 66f
2:10am 2 4 mph 1007.7mb - 66f
2:00am 4 7 mph 1007.9mb 62f 66f
1:50am 2 4 mph 1008mb - 66f
1:40am 4 7 mph 1008.2mb - 66f
1:30am 4 7 mph 1008.4mb - 66f
1:20am 4 9 mph 1008.6mb - 66f
1:10am 2 7 mph 1008.8mb - 65f
1:00am 2 4 mph 1009mb 62f 65f
12:50am 4
mph
1009.1mb - 65f
12:40am 2 4 mph 1009mb - 65f
12:30am 4
mph
1008.9mb - 65f
12:20am 4 7 mph 1009.1mb - 66f
12:10am 9 16 mph 1009.6mb - 67f
12:00am 16 25 mph 1009.9mb 62f 68f
Mon 04/14 11:50pm 13 18 mph 1009.7mb - 68f
11:40pm 7 9 mph 1009.8mb - 67f
11:30pm 9
mph
1009.8mb - 68f
11:20pm 9 11 mph 1009.7mb - 69f
11:10pm 9 11 mph 1009.7mb - 70f
11:00pm 9 11 mph 1009.6mb 62f 71f
10:50pm 9 11 mph 1009.6mb - 71f
10:40pm 9 16 mph 1009.7mb - 71f
10:30pm 9 13 mph 1009.8mb - 70f
10:20pm 7 9 mph 1009.8mb - 69f
10:10pm 7 9 mph 1010mb - 69f
10:00pm 9 11 mph 1010mb 63f 71f
9:50pm 11 13 mph 1010mb - 71f
9:40pm 11 13 mph 1010.1mb - 71f
9:30pm 9 13 mph 1010.2mb - 70f
9:20pm 9 13 mph 1010.1mb - 71f
9:10pm 13 20 mph 1010mb - 72f
9:00pm 11 16 mph 1010mb 63f 72f
8:50pm 9 11 mph 1009.9mb - 70f
8:40pm 9 13 mph 1009.9mb - 71f
8:30pm 11 16 mph 1009.8mb - 73f
8:20pm 13 18 mph 1009.7mb - 74f
8:10pm 11 16 mph 1009.6mb - 73f
8:00pm 9 16 mph 1009.7mb 62f 70f
7:50pm 7 9 mph 1009.7mb - 69f
7:40pm 11
mph
1009.7mb - 70f
7:30pm 11 13 mph 1009.7mb - 71f
7:20pm 13 16 mph 1009.8mb - 71f
7:10pm 11 13 mph 1010mb - 71f
7:00pm 11 13 mph 1010.2mb 62f 72f
6:50pm 13 18 mph 1010.5mb - 73f
6:10pm 16 20 mph 1010.6mb - 74f
5:50pm 13 18 mph 1010.7mb - 74f
5:40pm 13 20 mph 1010.7mb - 74f
5:30pm 16 25 mph 1010.8mb - 74f
5:00pm 18 22 mph 1011.2mb 62f 74f
4:40pm 16 22 mph 1011.2mb - 74f
4:30pm 18 22 mph 1011.3mb - 74f
4:20pm 18 29 mph 1011.4mb - 74f
4:10pm 16 22 mph 1011.4mb - 75f
4:00pm 18 25 mph 1011.5mb 62f 75f
3:50pm 18 25 mph 1011.7mb - 75f
3:40pm 18 25 mph 1011.8mb - 75f
3:30pm 18 25 mph 1012mb - 75f
3:20pm 20 27 mph 1012mb - 75f
3:10pm 18 31 mph 1012.2mb - 75f
3:00pm 18 25 mph 1012.3mb 61f 74f
2:50pm 20 27 mph 1012.4mb - 75f
2:40pm 22 34 mph 1012.4mb - 75f
2:30pm 18 25 mph 1012.6mb - 74f
2:20pm 20 29 mph 1012.7mb - 74f
2:10pm 18 25 mph 1012.8mb - 74f
2:00pm 20 31 mph 1012.8mb 62f 74f
1:50pm 18 27 mph 1012.9mb - 73f
1:40pm 22 29 mph 1012.8mb - 73f
1:30pm 22 29 mph 1012.9mb - 73f
1:20pm 20 29 mph 1013.2mb - 73f
1:10pm 20 25 mph 1013.5mb - 72f
1:00pm 20 27 mph 1013.6mb 62f 72f
12:50pm 18 29 mph 1013.8mb - 71f
12:40pm 18 25 mph 1014mb - 71f
12:30pm 18 22 mph 1014.3mb - 71f
12:20pm 20 27 mph 1014.4mb - 71f
12:10pm 20 27 mph 1014.6mb - 70f
12:00pm 20 29 mph 1014.8mb 62f 70f
11:50am 18 25 mph 1014.9mb - 70f
11:40am 18 25 mph 1015mb - 69f
11:30am 18 27 mph 1015mb - 69f
11:20am 20 27 mph 1014.9mb - 69f
11:10am 18 27 mph 1014.9mb - 69f
11:00am 20 27 mph 1015mb 62f 69f
10:50am 20 29 mph 1015mb - 69f
10:40am 18 25 mph 1015.1mb - 68f
10:30am 20 27 mph 1014.9mb - 68f
10:20am 20 27 mph 1015.1mb - 68f
10:10am 20 25 mph 1014.9mb - 67f
10:00am 18 25 mph 1015.1mb 61f 67f
9:50am 20 27 mph 1014.9mb - 67f
9:40am 18 25 mph 1014.9mb - 67f
9:30am 20 25 mph 1014.9mb - 67f
9:20am 16 22 mph 1015mb - 67f
9:10am 18 22 mph 1014.9mb - 67f
9:00am 16 20 mph 1014.9mb 61f 66f
8:50am 16 22 mph 1014.9mb - 66f
8:40am 16 22 mph 1015mb - 66f
8:30am 16 22 mph 1015.1mb - 66f
8:20am 16 20 mph 1015.1mb - 65f
8:10am 16 20 mph 1015.2mb - 65f
8:00am 16 22 mph 1015.3mb 61f 65f
7:50am 16 22 mph 1015.2mb - 65f
7:40am 16 20 mph 1015.2mb - 64f
7:30am 16 18 mph 1015.3mb - 64f
7:20am 13 18 mph 1015.2mb - 64f
7:10am 13 18 mph 1015.1mb - 64f
7:00am 13 18 mph 1015mb 61f 64f
6:50am 16 20 mph 1014.9mb - 65f
6:40am 16 18 mph 1014.8mb - 65f
6:30am 13 18 mph 1014.8mb - 64f
6:20am 13 18 mph 1014.7mb - 65f
6:10am 13 16 mph 1014.8mb - 65f
6:00am 13 18 mph 1014.9mb 61f 65f
5:50am 16 18 mph 1014.9mb - 65f
5:40am 16 20 mph 1014.9mb - 65f
5:30am 16 18 mph 1014.9mb - 65f
5:20am 16 22 mph 1015mb - 66f
5:10am 16 18 mph 1015.1mb - 66f
5:00am 16 20 mph 1015.2mb 62f 66f
4:50am 16 20 mph 1015.2mb - 66f
4:40am 16 18 mph 1015.3mb - 66f
4:30am 16 18 mph 1015.3mb - 66f
4:20am 13 18 mph 1015.2mb - 66f
4:10am 16 20 mph 1015.1mb - 66f
4:00am 16 20 mph 1015.1mb 62f 66f
3:50am 16 22 mph 1015.1mb - 67f
3:40am 16 20 mph 1015.1mb - 67f
3:30am 16 20 mph 1015.1mb - 67f
3:20am 16 20 mph 1015.1mb - 67f
3:10am 13 18 mph 1015.2mb - 67f
3:00am 16 20 mph 1015.2mb 62f 68f
2:50am 16 20 mph 1015.2mb - 68f
2:40am 18 22 mph 1015.3mb - 68f
2:30am 16 20 mph 1015.4mb - 68f
2:20am 13 18 mph 1015.5mb - 68f
2:10am 13 18 mph 1015.6mb - 68f
2:00am 13 18 mph 1015.7mb 61f 68f
1:50am 13 18 mph 1015.8mb - 67f
1:40am 16 22 mph 1015.8mb - 68f